This demonstration page uses our WeatherBlox Daily Observations layout. Learn more.

Left ArrowRight Arrow

39.29038, -76.61219

Hourly Observations for November 30, 2021

Temp ( °F °C ) Dew Point ( °F °C ) Humidity (%) Winds ( mph kmh ) Pressure ( in mb ) Visibility ( mi km ) Precip ( " mm )
12:54 am 00:54 Mostly Cloudy 32 undefined 24 -4.4 73 73 W 3 6 30.07 1018 10 16 N/A
1:54 am 01:54 Cloudy 34 1.1 24 -4.4 67 67 W 3 6 30.08 1019 10 16 N/A
2:54 am 02:54 Mostly Cloudy 33 0.6 25 -3.9 72 72 SW 3 6 30.09 1019 10 16 N/A
3:54 am 03:54 Cloudy 34 1.1 25 -3.9 70 70 WSW 3 6 30.07 1018 10 16 N/A
4:54 am 04:54 Cloudy 36 2.2 25 -3.9 64 64 WSW 3 6 30.07 1018 10 16 N/A
5:54 am 05:54 Cloudy 36 2.2 25 -3.9 64 64 S 3 6 30.06 1018 10 16 N/A
6:54 am 06:54 Mostly Cloudy 36 2.2 25 -3.9 64 64 S 6 9 30.05 1018 10 16 N/A
7:54 am 07:54 Mostly Cloudy 37 2.8 24 -4.4 59 59 S 3 6 30.04 1017 10 16 N/A
8:54 am 08:54 Cloudy with Light Snow 38 3.3 24 -4.4 57 57 SW 6 9 30.04 1017 8 13 0.00 0.00
9:54 am 09:54 Cloudy 40 4.4 26 -3.3 58 58 VRB 3 6 30.01 1016 10 16 0.00 0.00
10:54 am 10:54 Cloudy 42 5.6 25 -3.9 51 51 VRB 7 11 29.98 1015 10 16 N/A
11:54 am 11:54 Cloudy 43 6.1 25 -3.9 49 49 SSW 5 7 29.95 1014 10 16 N/A
12:54 pm 12:54 Mostly Cloudy 46 7.8 24 -4.4 42 42 SW 8 13 29.93 1013 10 16 N/A
1:54 pm 13:54 Cloudy 47 8.3 23 -5 39 39 WSW 7 11 29.92 1013 10 16 N/A
2:54 pm 14:54 Mostly Cloudy 49 9.4 23 -5 36 36 N N/A 29.92 1013 10 16 N/A
3:54 pm 15:54 Mostly Cloudy 49 9.4 24 -4.4 38 38 N N/A 29.93 1014 10 16 N/A
4:54 pm 16:54 Partly Cloudy 46 7.8 24 -4.4 42 42 N N/A 29.94 1014 10 16 N/A
5:54 pm 17:54 Mostly Clear 41 5 26 -3.3 55 55 N N/A 29.96 1015 10 16 N/A
6:54 pm 18:54 Clear 36 2.2 26 -3.3 67 67 N N/A 29.97 1015 10 16 N/A
7:54 pm 19:54 Clear 34 1.1 26 -3.3 73 73 N N/A 29.99 1016 10 16 N/A
8:54 pm 20:54 Clear 33 0.6 26 -3.3 75 75 W 3 6 29.99 1016 10 16 N/A
9:54 pm 21:54 Clear 31 -0.6 25 -3.9 79 79 N N/A 29.98 1015 10 16 N/A
10:54 pm 22:54 Clear 32 undefined 25 -3.9 75 75 WSW 3 6 30.00 1016 10 16 N/A
11:54 pm 23:54 Clear 30 -1.1 25 -3.9 82 82 N N/A 30.02 1017 10 16 N/A

Powered by AerisWeather